DAL1502 KLAX-KATL

Flight info

Callsign DAL1502
Flight time N/A
Altitude 39000
Route DOTSS2 CLEEE PKE HIDAT KA27O NABOB J74 SJN J231 ACH TCC J78 IRW J14 LIT J66 BEATS RUSSA GLAVN2
Aircraft A339/H-SADE1E2E3GHIJ3J5M1P2RWXY/LB2D1

Departure

Time 2026-04-22 01:41
Airport Los Angeles International Airport (KLAX)

Arrival

Time N/A
Airport Hartsfield Jackson Atlanta International Airport (KATL)
Time Latitude Longitude Altitude Speed Heading
2026-04-22 01:00 33.94669 -118.40845 129 ft 0 kts 112°
2026-04-22 01:18 33.94669 -118.40846 129 ft 0 kts 112°
2026-04-22 01:19 33.94669 -118.40845 129 ft 0 kts 112°
2026-04-22 01:19 33.94671 -118.40849 129 ft 2 kts 112°
2026-04-22 01:20 33.94674 -118.40867 130 ft 2 kts 90°
2026-04-22 01:20 33.94672 -118.40884 130 ft 2 kts 71°
2026-04-22 01:20 33.94665 -118.40900 130 ft 2 kts 52°
2026-04-22 01:20 33.94655 -118.40913 130 ft 2 kts 33°
2026-04-22 01:21 33.94642 -118.40920 131 ft 2 kts 14°
2026-04-22 01:21 33.94628 -118.40923 131 ft 0 kts 357°
2026-04-22 01:21 33.94623 -118.40923 131 ft 0 kts 355°
2026-04-22 01:31 33.94625 -118.40923 130 ft 1 kts 355°
2026-04-22 01:32 33.94640 -118.40924 130 ft 3 kts 355°
2026-04-22 01:32 33.94669 -118.40927 130 ft 5 kts 355°
2026-04-22 01:32 33.94708 -118.40926 130 ft 6 kts 20°
2026-04-22 01:32 33.94755 -118.40897 130 ft 8 kts 31°
2026-04-22 01:33 33.94789 -118.40881 131 ft 5 kts 15°
2026-04-22 01:33 33.94823 -118.40863 132 ft 5 kts 46°
2026-04-22 01:33 33.94841 -118.40810 131 ft 8 kts 80°
2026-04-22 01:33 33.94848 -118.40728 130 ft 11 kts 85°
2026-04-22 01:34 33.94862 -118.40621 129 ft 13 kts 81°
2026-04-22 01:34 33.94875 -118.40504 129 ft 14 kts 84°
2026-04-22 01:34 33.94886 -118.40373 126 ft 16 kts 83°
2026-04-22 01:34 33.94896 -118.40290 125 ft 0 kts 81°
2026-04-22 01:35 33.94896 -118.40286 125 ft 0 kts 81°
2026-04-22 01:35 33.94897 -118.40282 125 ft 1 kts 81°
2026-04-22 01:35 33.94900 -118.40254 125 ft 4 kts 81°
2026-04-22 01:36 33.94904 -118.40232 125 ft 2 kts 80°
2026-04-22 01:36 33.94912 -118.40206 125 ft 2 kts 58°
2026-04-22 01:38 33.94915 -118.40202 126 ft 3 kts 58°
2026-04-22 01:38 33.94925 -118.40146 125 ft 7 kts 87°
2026-04-22 01:39 33.94936 -118.40097 124 ft 7 kts 48°
2026-04-22 01:39 33.94980 -118.40076 124 ft 3 kts
2026-04-22 01:39 33.95000 -118.40081 124 ft 3 kts 338°
2026-04-22 01:39 33.95023 -118.40108 124 ft 5 kts 289°
2026-04-22 01:40 33.95023 -118.40123 124 ft 0 kts 259°
2026-04-22 01:40 33.95021 -118.40133 124 ft 11 kts 261°
2026-04-22 01:40 33.94984 -118.40492 129 ft 74 kts 263°
2026-04-22 01:41 33.94894 -118.41323 132 ft 127 kts 264°
2026-04-22 01:41 33.94764 -118.42586 183 ft 167 kts 262°
2026-04-22 01:41 33.94647 -118.43981 687 ft 170 kts 265°
2026-04-22 01:41 33.94532 -118.45383 1365 ft 167 kts 258°
2026-04-22 01:42 33.94295 -118.46778 1853 ft 176 kts 262°
2026-04-22 01:42 33.94144 -118.48267 2350 ft 183 kts 259°
2026-04-22 01:42 33.93918 -118.49797 2665 ft 196 kts 269°
2026-04-22 01:42 33.93932 -118.51508 2973 ft 213 kts 270°
2026-04-22 01:43 33.93911 -118.53362 3293 ft 231 kts 269°
2026-04-22 01:43 33.93827 -118.55354 3638 ft 248 kts 267°
2026-04-22 01:43 33.93697 -118.57472 4228 ft 255 kts 266°
2026-04-22 01:43 33.93545 -118.59586 4957 ft 256 kts 265°
2026-04-22 01:44 33.93109 -118.61634 5650 ft 258 kts 242°
2026-04-22 01:44 33.91929 -118.63242 6385 ft 262 kts 217°
2026-04-22 01:44 33.90271 -118.64077 7120 ft 268 kts 193°
2026-04-22 01:44 33.88395 -118.64088 7812 ft 274 kts 181°
2026-04-22 01:45 33.86481 -118.63930 8481 ft 277 kts 182°
2026-04-22 01:45 33.84545 -118.63612 9168 ft 284 kts 170°
2026-04-22 01:45 33.82710 -118.62680 9868 ft 294 kts 155°
2026-04-22 01:45 33.80988 -118.61332 10449 ft 302 kts 152°
2026-04-22 01:46 33.79209 -118.59862 10762 ft 319 kts 152°
2026-04-22 01:46 33.77340 -118.58315 11056 ft 335 kts 152°
2026-04-22 01:46 33.75366 -118.56694 11337 ft 352 kts 152°
2026-04-22 01:46 33.73300 -118.55011 11614 ft 368 kts 152°
2026-04-22 01:47 33.71185 -118.53164 11873 ft 388 kts 143°
2026-04-22 01:47 33.69411 -118.50602 12328 ft 406 kts 126°
2026-04-22 01:47 33.68230 -118.47505 13015 ft 414 kts 113°
2026-04-22 01:47 33.67297 -118.44227 13633 ft 419 kts 112°
2026-04-22 01:48 33.66369 -118.40901 14179 ft 425 kts 112°
2026-04-22 01:48 33.65419 -118.37528 14766 ft 430 kts 111°
2026-04-22 01:48 33.64718 -118.34038 15361 ft 438 kts 103°
2026-04-22 01:48 33.64397 -118.30385 15960 ft 444 kts 94°
2026-04-22 01:49 33.64362 -118.26672 16539 ft 449 kts 91°
2026-04-22 01:49 33.64392 -118.22935 17094 ft 454 kts 91°
2026-04-22 01:49 33.64428 -118.19131 17636 ft 459 kts 91°
2026-04-22 01:49 33.64453 -118.15305 18207 ft 463 kts 92°
2026-04-22 01:50 33.64466 -118.11426 18758 ft 468 kts 92°
2026-04-22 01:50 33.64470 -118.07507 19318 ft 472 kts 92°
2026-04-22 01:50 33.64469 -118.03572 19897 ft 475 kts 92°
2026-04-22 01:50 33.64466 -117.99645 20416 ft 479 kts 92°
2026-04-22 01:51 33.64457 -117.95638 20894 ft 484 kts 92°
2026-04-22 01:51 33.64449 -117.91577 21404 ft 488 kts 92°
2026-04-22 01:51 33.64438 -117.87495 21870 ft 492 kts 92°
2026-04-22 01:51 33.64452 -117.83424 22331 ft 497 kts 90°
2026-04-22 01:52 33.64695 -117.79239 22817 ft 501 kts 85°
2026-04-22 01:52 33.65216 -117.75148 23271 ft 505 kts 79°
2026-04-22 01:52 33.65965 -117.71066 23921 ft 503 kts 77°
2026-04-22 01:52 33.66769 -117.67007 24647 ft 500 kts 76°
2026-04-22 01:53 33.67585 -117.62922 25119 ft 502 kts 77°
2026-04-22 01:53 33.68388 -117.58865 25468 ft 507 kts 77°
2026-04-22 01:53 33.69194 -117.54726 25863 ft 511 kts 77°
2026-04-22 01:53 33.69992 -117.50562 26245 ft 514 kts 77°
2026-04-22 01:54 33.70784 -117.46422 26626 ft 517 kts 77°
2026-04-22 01:54 33.71593 -117.42173 27036 ft 520 kts 77°
2026-04-22 01:54 33.72390 -117.37953 27397 ft 523 kts 77°
2026-04-22 01:54 33.73199 -117.33686 27760 ft 526 kts 78°
2026-04-22 01:55 33.74003 -117.29437 28100 ft 528 kts 79°
2026-04-22 01:55 33.74654 -117.25082 28420 ft 530 kts 84°
2026-04-22 01:55 33.75019 -117.20677 28754 ft 531 kts 89°
2026-04-22 01:55 33.75089 -117.16309 29076 ft 532 kts 93°
2026-04-22 01:56 33.74997 -117.11830 29401 ft 534 kts 95°
2026-04-22 01:56 33.74865 -117.07392 29741 ft 535 kts 95°
2026-04-22 01:56 33.74740 -117.02949 30205 ft 534 kts 95°
2026-04-22 01:56 33.74635 -116.98546 30683 ft 532 kts 94°
2026-04-22 01:57 33.74539 -116.94127 31145 ft 531 kts 95°
2026-04-22 01:57 33.74442 -116.89712 31545 ft 530 kts 95°
2026-04-22 01:57 33.74345 -116.85290 31907 ft 531 kts 95°
2026-04-22 01:57 33.74245 -116.80851 32276 ft 531 kts 95°
2026-04-22 01:58 33.74147 -116.76447 32651 ft 531 kts 95°
2026-04-22 01:58 33.74043 -116.72025 33022 ft 530 kts 95°
2026-04-22 01:58 33.73940 -116.67635 33380 ft 530 kts 95°
2026-04-22 01:58 33.73833 -116.63241 33767 ft 529 kts 95°
2026-04-22 01:59 33.73726 -116.58860 34179 ft 528 kts 95°
2026-04-22 01:59 33.73617 -116.54456 34585 ft 527 kts 95°
2026-04-22 01:59 33.73505 -116.50037 34979 ft 526 kts 95°
2026-04-22 01:59 33.73394 -116.45666 35380 ft 525 kts 95°
2026-04-22 02:00 33.73281 -116.41296 35724 ft 525 kts 96°
2026-04-22 02:00 33.73167 -116.36945 36092 ft 524 kts 95°
2026-04-22 02:00 33.73050 -116.32591 36464 ft 523 kts 96°
2026-04-22 02:00 33.72932 -116.28289 36765 ft 523 kts 96°
2026-04-22 02:01 33.72816 -116.23953 37054 ft 523 kts 96°
2026-04-22 02:01 33.72694 -116.19555 37314 ft 523 kts 96°
2026-04-22 02:01 33.72667 -116.15201 37549 ft 526 kts 92°
2026-04-22 02:01 33.72856 -116.10828 37750 ft 529 kts 88°
2026-04-22 02:02 33.73291 -116.06464 37972 ft 531 kts 83°
2026-04-22 02:02 33.73972 -116.02117 38147 ft 534 kts 79°
2026-04-22 02:02 33.74912 -115.97804 38340 ft 536 kts 75°
2026-04-22 02:02 33.76053 -115.93562 38539 ft 537 kts 72°
2026-04-22 02:03 33.77261 -115.89297 38693 ft 539 kts 72°
2026-04-22 02:03 33.78466 -115.85079 38851 ft 540 kts 72°
2026-04-22 02:03 33.79673 -115.80821 39001 ft 540 kts 72°
2026-04-22 02:03 33.80873 -115.76546 39011 ft 540 kts 73°
2026-04-22 02:04 33.84414 -115.63723 39001 ft 539 kts 72°
2026-04-22 02:05 33.86742 -115.55239 38980 ft 537 kts 73°
2026-04-22 02:05 33.89076 -115.46707 38958 ft 536 kts 73°
2026-04-22 02:06 33.91401 -115.38192 38938 ft 536 kts 73°
2026-04-22 02:06 33.93711 -115.29693 38929 ft 535 kts 74°
2026-04-22 02:07 33.95999 -115.21242 38920 ft 535 kts 73°
2026-04-22 02:07 33.98296 -115.12741 38916 ft 535 kts 73°
2026-04-22 02:08 34.00588 -115.04241 38911 ft 535 kts 74°
2026-04-22 02:08 34.02871 -114.95731 38910 ft 533 kts 74°
2026-04-22 02:09 34.05132 -114.87279 38901 ft 533 kts 73°
2026-04-22 02:09 34.07396 -114.78805 38904 ft 532 kts 73°
2026-04-22 02:10 34.09651 -114.70329 38898 ft 531 kts 74°
2026-04-22 02:10 34.11948 -114.61929 38897 ft 531 kts 73°
2026-04-22 02:11 34.14326 -114.53509 38906 ft 530 kts 73°
2026-04-22 02:11 34.16690 -114.45095 38907 ft 530 kts 72°
2026-04-22 02:12 34.19087 -114.36505 38904 ft 529 kts 73°
2026-04-22 02:12 34.21408 -114.28153 38899 ft 528 kts 73°
2026-04-22 02:13 34.23733 -114.19759 38896 ft 528 kts 73°
2026-04-22 02:13 34.26047 -114.11365 38901 ft 527 kts 73°
2026-04-22 02:14 34.28355 -114.02982 38908 ft 527 kts 73°
2026-04-22 02:14 34.30647 -113.94636 38923 ft 526 kts 73°
2026-04-22 02:15 34.32948 -113.86234 38945 ft 525 kts 73°
2026-04-22 02:15 34.35233 -113.77854 38961 ft 524 kts 73°
2026-04-22 02:16 34.37502 -113.69502 38974 ft 524 kts 73°
2026-04-22 02:16 34.39761 -113.61177 39003 ft 522 kts 73°
2026-04-22 02:17 34.42010 -113.52851 39026 ft 522 kts 73°
2026-04-22 02:17 34.44273 -113.44455 39043 ft 522 kts 73°
2026-04-22 02:18 34.46495 -113.36176 39056 ft 521 kts 73°
2026-04-22 02:18 34.48747 -113.27773 39062 ft 520 kts 73°
2026-04-22 02:19 34.50957 -113.19495 39065 ft 520 kts 74°
2026-04-22 02:19 34.53164 -113.11198 39069 ft 518 kts 74°
2026-04-22 02:20 34.55034 -113.02830 39076 ft 515 kts 81°
2026-04-22 02:20 34.55967 -112.94293 39093 ft 512 kts 89°
2026-04-22 02:21 34.55936 -112.85690 39113 ft 507 kts 98°
2026-04-22 02:21 34.55356 -112.77215 39136 ft 505 kts 98°
2026-04-22 02:22 34.54763 -112.68771 39137 ft 504 kts 98°
2026-04-22 02:22 34.54191 -112.60324 39145 ft 504 kts 98°
2026-04-22 02:23 34.53625 -112.51934 39148 ft 503 kts 98°
2026-04-22 02:23 34.53052 -112.43510 39154 ft 503 kts 98°
2026-04-22 02:24 34.52477 -112.35089 39144 ft 502 kts 98°
2026-04-22 02:24 34.51913 -112.26955 39139 ft 502 kts 98°
2026-04-22 02:25 34.51324 -112.18534 39140 ft 502 kts 98°
2026-04-22 02:25 34.50733 -112.10152 39131 ft 500 kts 98°
2026-04-22 02:26 34.49963 -112.01800 39135 ft 498 kts 103°
2026-04-22 02:26 34.48458 -111.93671 39132 ft 492 kts 110°
2026-04-22 02:27 34.46495 -111.85806 39130 ft 490 kts 111°
2026-04-22 02:27 34.44501 -111.77922 39120 ft 490 kts 111°
2026-04-22 02:28 34.42528 -111.70057 39126 ft 488 kts 110°
2026-04-22 02:28 34.40557 -111.62212 39145 ft 488 kts 110°
2026-04-22 02:29 34.38594 -111.54397 39162 ft 489 kts 110°
2026-04-22 02:29 34.36611 -111.46539 39175 ft 488 kts 110°
2026-04-22 02:30 34.34775 -111.38703 39176 ft 490 kts 105°
2026-04-22 02:30 34.33624 -111.30559 39172 ft 492 kts 99°
2026-04-22 02:31 34.33290 -111.22330 39189 ft 493 kts 91°
2026-04-22 02:31 34.33647 -111.14068 39203 ft 495 kts 88°
2026-04-22 02:32 34.34117 -111.05752 39217 ft 494 kts 88°
2026-04-22 02:32 34.34552 -110.97537 39239 ft 492 kts 88°
2026-04-22 02:33 34.34972 -110.89261 39241 ft 492 kts 88°
2026-04-22 02:33 34.35385 -110.80961 39235 ft 492 kts 88°
2026-04-22 02:34 34.35789 -110.72699 39233 ft 492 kts 88°
2026-04-22 02:34 34.36182 -110.64473 39238 ft 493 kts 88°
2026-04-22 02:35 34.36575 -110.56187 39243 ft 493 kts 88°
2026-04-22 02:35 34.36961 -110.47935 39241 ft 493 kts 88°
2026-04-22 02:36 34.37339 -110.39716 39245 ft 493 kts 88°
2026-04-22 02:36 34.37712 -110.31471 39228 ft 493 kts 88°
2026-04-22 02:37 34.38082 -110.23186 39230 ft 492 kts 88°
2026-04-22 02:37 34.38442 -110.14938 39209 ft 492 kts 88°
2026-04-22 02:38 34.38800 -110.06704 39208 ft 493 kts 88°
2026-04-22 02:38 34.39151 -109.98465 39214 ft 493 kts 88°
2026-04-22 02:39 34.39499 -109.90164 39222 ft 493 kts 88°
2026-04-22 02:39 34.39842 -109.81870 39222 ft 493 kts 88°
2026-04-22 02:40 34.40178 -109.73579 39241 ft 493 kts 88°
2026-04-22 02:40 34.40507 -109.65308 39258 ft 494 kts 88°
2026-04-22 02:41 34.40831 -109.57035 39248 ft 494 kts 87°
2026-04-22 02:41 34.41150 -109.48784 39223 ft 494 kts 87°
2026-04-22 02:42 34.41463 -109.40506 39227 ft 494 kts 87°
2026-04-22 02:42 34.41772 -109.32234 39228 ft 494 kts 88°
2026-04-22 02:43 34.42076 -109.23896 39232 ft 494 kts 88°
2026-04-22 02:43 34.42515 -109.15638 39260 ft 494 kts 83°
2026-04-22 02:44 34.43649 -109.07485 39290 ft 494 kts 77°
2026-04-22 02:44 34.45150 -108.99416 39305 ft 493 kts 76°
2026-04-22 02:45 34.46666 -108.91303 39283 ft 494 kts 76°
2026-04-22 02:45 34.48148 -108.83277 39280 ft 493 kts 76°
2026-04-22 02:46 34.49633 -108.75159 39284 ft 492 kts 76°
2026-04-22 02:46 34.51103 -108.67079 39289 ft 493 kts 76°
2026-04-22 02:47 34.52571 -108.58983 39298 ft 492 kts 76°
2026-04-22 02:47 34.54025 -108.50931 39296 ft 492 kts 76°
2026-04-22 02:48 34.55474 -108.42869 39303 ft 491 kts 76°
2026-04-22 02:48 34.56924 -108.34772 39309 ft 491 kts 77°
2026-04-22 02:49 34.58356 -108.26745 39307 ft 491 kts 77°
2026-04-22 02:49 34.59794 -108.18652 39315 ft 491 kts 77°
2026-04-22 02:50 34.61215 -108.10621 39322 ft 490 kts 77°
2026-04-22 02:50 34.62632 -108.02573 39320 ft 488 kts 77°
2026-04-22 02:51 34.64043 -107.94537 39320 ft 488 kts 77°
2026-04-22 02:51 34.65457 -107.86455 39323 ft 488 kts 77°
2026-04-22 02:52 34.66855 -107.78429 39325 ft 487 kts 77°
2026-04-22 02:52 34.68248 -107.70390 39320 ft 488 kts 77°
2026-04-22 02:53 34.69550 -107.62842 39313 ft 487 kts 77°
2026-04-22 02:53 34.70628 -107.56576 39290 ft 488 kts 77°
2026-04-22 02:54 34.72001 -107.48564 39270 ft 488 kts 77°
2026-04-22 02:54 34.73385 -107.40465 39252 ft 488 kts 77°
2026-04-22 02:55 34.74752 -107.32424 39251 ft 489 kts 77°
2026-04-22 02:55 34.76123 -107.24330 39247 ft 488 kts 77°
2026-04-22 02:56 34.77483 -107.16258 39221 ft 487 kts 77°
2026-04-22 02:56 34.78831 -107.08217 39207 ft 487 kts 77°
2026-04-22 02:57 34.80169 -107.00204 39182 ft 486 kts 78°
2026-04-22 02:57 34.81509 -106.92160 39172 ft 487 kts 78°
2026-04-22 02:58 34.82842 -106.84119 39165 ft 486 kts 78°
2026-04-22 02:58 34.84161 -106.76126 39139 ft 486 kts 78°
2026-04-22 02:59 34.85490 -106.68034 39163 ft 486 kts 78°
2026-04-22 02:59 34.86804 -106.59999 39166 ft 486 kts 78°
2026-04-22 03:00 34.88110 -106.51981 39183 ft 484 kts 78°
2026-04-22 03:00 34.89402 -106.44010 39207 ft 483 kts 78°
2026-04-22 03:01 34.90691 -106.36013 39223 ft 481 kts 78°
2026-04-22 03:01 34.91977 -106.28023 39256 ft 481 kts 79°
2026-04-22 03:02 34.93249 -106.20071 39262 ft 481 kts 79°
2026-04-22 03:02 34.94522 -106.12086 39278 ft 481 kts 79°
2026-04-22 03:03 34.95784 -106.04141 39259 ft 481 kts 79°
2026-04-22 03:03 34.97044 -105.96156 39264 ft 480 kts 79°
2026-04-22 03:04 34.98294 -105.88202 39279 ft 479 kts 79°
2026-04-22 03:04 34.99544 -105.80210 39285 ft 479 kts 79°
2026-04-22 03:05 35.00781 -105.72272 39299 ft 478 kts 79°
2026-04-22 03:05 35.02010 -105.64349 39294 ft 478 kts 80°
2026-04-22 03:06 35.03236 -105.56403 39293 ft 477 kts 79°
2026-04-22 03:06 35.04451 -105.48502 39289 ft 476 kts 79°
2026-04-22 03:07 35.05658 -105.40617 39279 ft 475 kts 79°
2026-04-22 03:07 35.06866 -105.32680 39258 ft 474 kts 80°
2026-04-22 03:08 35.08055 -105.24841 39243 ft 473 kts 80°
2026-04-22 03:08 35.09250 -105.16931 39234 ft 473 kts 80°
2026-04-22 03:09 35.10428 -105.09090 39231 ft 472 kts 80°
2026-04-22 03:09 35.11338 -105.01183 39223 ft 472 kts 86°
2026-04-22 03:10 35.11787 -104.93230 39211 ft 471 kts 87°
2026-04-22 03:10 35.12202 -104.85295 39207 ft 471 kts 87°
2026-04-22 03:11 35.12620 -104.77285 39192 ft 470 kts 86°
2026-04-22 03:11 35.13032 -104.69391 39188 ft 471 kts 86°
2026-04-22 03:12 35.13443 -104.61439 39178 ft 470 kts 86°
2026-04-22 03:12 35.14050 -104.49507 39175 ft 470 kts 86°
2026-04-22 03:13 35.14448 -104.41556 39178 ft 470 kts 86°
2026-04-22 03:13 35.14841 -104.33607 39174 ft 469 kts 87°
2026-04-22 03:14 35.15226 -104.25712 39173 ft 468 kts 87°
2026-04-22 03:14 35.15606 -104.17818 39175 ft 469 kts 87°
2026-04-22 03:15 35.15982 -104.09868 39165 ft 469 kts 87°
2026-04-22 03:15 35.16352 -104.01966 39163 ft 468 kts 87°
2026-04-22 03:16 35.16719 -103.94022 39160 ft 468 kts 87°
2026-04-22 03:16 35.17077 -103.86148 39150 ft 468 kts 87°
2026-04-22 03:17 35.17433 -103.78223 39119 ft 468 kts 87°
2026-04-22 03:17 35.17783 -103.70312 39085 ft 467 kts 87°
2026-04-22 03:18 35.18127 -103.62413 39054 ft 466 kts 87°
2026-04-22 03:18 35.18436 -103.54554 39044 ft 464 kts 88°
2026-04-22 03:19 35.18698 -103.46697 39061 ft 460 kts 87°
2026-04-22 03:19 35.18960 -103.38902 39080 ft 460 kts 87°
2026-04-22 03:20 35.19222 -103.31175 39102 ft 459 kts 88°
2026-04-22 03:20 35.19481 -103.23403 39107 ft 459 kts 88°
2026-04-22 03:21 35.19731 -103.15624 39112 ft 458 kts 88°
2026-04-22 03:21 35.19976 -103.07880 39110 ft 458 kts 88°
2026-04-22 03:22 35.20217 -103.00093 39103 ft 459 kts 88°
2026-04-22 03:22 35.20455 -102.92262 39093 ft 460 kts 88°
2026-04-22 03:23 35.20686 -102.84485 39098 ft 460 kts 88°
2026-04-22 03:23 35.20913 -102.76696 39105 ft 459 kts 87°
2026-04-22 03:24 35.21135 -102.68938 39107 ft 459 kts 88°
2026-04-22 03:24 35.21352 -102.61164 39109 ft 459 kts 88°
2026-04-22 03:25 35.21564 -102.53380 39105 ft 459 kts 88°
2026-04-22 03:25 35.21769 -102.45622 39097 ft 459 kts 88°
2026-04-22 03:26 35.21970 -102.37849 39104 ft 459 kts 87°
2026-04-22 03:26 35.22166 -102.30101 39100 ft 459 kts 88°
2026-04-22 03:27 35.22358 -102.22320 39095 ft 459 kts 88°
2026-04-22 03:27 35.22545 -102.14532 39099 ft 459 kts 88°
2026-04-22 03:28 35.22727 -102.06750 39092 ft 459 kts 88°
2026-04-22 03:28 35.22905 -101.98974 39085 ft 460 kts 88°
2026-04-22 03:29 35.23076 -101.91159 39080 ft 460 kts 88°
2026-04-22 03:29 35.23243 -101.83392 39072 ft 460 kts 88°
2026-04-22 03:30 35.23405 -101.75620 39074 ft 459 kts 88°
2026-04-22 03:30 35.23583 -101.67857 39078 ft 458 kts 86°
2026-04-22 03:31 35.23945 -101.60062 39081 ft 459 kts 85°
2026-04-22 03:31 35.24323 -101.52287 39088 ft 460 kts 85°
2026-04-22 03:32 35.24687 -101.44492 39086 ft 460 kts 86°
2026-04-22 03:32 35.25039 -101.36699 39066 ft 459 kts 86°
2026-04-22 03:33 35.25381 -101.28951 39072 ft 459 kts 86°
2026-04-22 03:33 35.25658 -101.22580 39078 ft 458 kts 86°
2026-04-22 03:34 35.25928 -101.16294 39076 ft 458 kts 86°
2026-04-22 03:34 35.26257 -101.08542 39061 ft 458 kts 86°
2026-04-22 03:35 35.26581 -101.00768 39067 ft 459 kts 86°
2026-04-22 03:35 35.26902 -100.92983 39062 ft 459 kts 86°
2026-04-22 03:36 35.27214 -100.85260 39068 ft 459 kts 86°
2026-04-22 03:36 35.27523 -100.77483 39065 ft 458 kts 86°
2026-04-22 03:37 35.27827 -100.69725 39066 ft 457 kts 86°
2026-04-22 03:37 35.28125 -100.62005 39062 ft 457 kts 86°
2026-04-22 03:38 35.28418 -100.54284 39069 ft 456 kts 86°
2026-04-22 03:38 35.28705 -100.46556 39066 ft 456 kts 86°
2026-04-22 03:39 35.28989 -100.38802 39063 ft 456 kts 86°
2026-04-22 03:39 35.29266 -100.31092 39067 ft 455 kts 87°
2026-04-22 03:40 35.29537 -100.23405 39069 ft 455 kts 86°
2026-04-22 03:40 35.29806 -100.15697 39067 ft 455 kts 87°
2026-04-22 03:41 35.30070 -100.07960 39069 ft 455 kts 87°
2026-04-22 03:41 35.30327 -100.00266 39067 ft 454 kts 87°
2026-04-22 03:42 35.30578 -99.92564 39059 ft 454 kts 87°
2026-04-22 03:42 35.30825 -99.84837 39060 ft 454 kts 86°
2026-04-22 03:43 35.31067 -99.77163 39059 ft 454 kts 86°
2026-04-22 03:43 35.31308 -99.69456 39069 ft 454 kts 87°
2026-04-22 03:44 35.31540 -99.61771 39085 ft 454 kts 86°
2026-04-22 03:44 35.31768 -99.54054 39079 ft 454 kts 86°
2026-04-22 03:45 35.31990 -99.46369 39102 ft 454 kts 86°
2026-04-22 03:45 35.32207 -99.38670 39099 ft 454 kts 86°
2026-04-22 03:46 35.32419 -99.30952 39098 ft 454 kts 87°
2026-04-22 03:46 35.32628 -99.23271 39094 ft 454 kts 87°
2026-04-22 03:47 35.32834 -99.15578 39113 ft 454 kts 87°
2026-04-22 03:47 35.33034 -99.07883 39103 ft 454 kts 87°
2026-04-22 03:48 35.33228 -99.00149 39120 ft 455 kts 87°
2026-04-22 03:48 35.33416 -98.92474 39121 ft 454 kts 87°
2026-04-22 03:49 35.33600 -98.84759 39118 ft 454 kts 87°
2026-04-22 03:49 35.33777 -98.77089 39104 ft 453 kts 87°
2026-04-22 03:50 35.33951 -98.69357 39111 ft 454 kts 87°
2026-04-22 03:50 35.34118 -98.61687 39102 ft 453 kts 87°
2026-04-22 03:51 35.34283 -98.53967 39093 ft 453 kts 87°
2026-04-22 03:51 35.34441 -98.46288 39099 ft 453 kts 87°
2026-04-22 03:52 35.34593 -98.38635 39102 ft 452 kts 87°
2026-04-22 03:52 35.34743 -98.30874 39101 ft 452 kts 87°
2026-04-22 03:53 35.34887 -98.23193 39097 ft 452 kts 87°
2026-04-22 03:53 35.35026 -98.15541 39115 ft 452 kts 88°
2026-04-22 03:54 35.35160 -98.07848 39127 ft 452 kts 88°
2026-04-22 03:54 35.35289 -98.00191 39123 ft 452 kts 87°
2026-04-22 03:55 35.35413 -97.92494 39122 ft 451 kts 87°
2026-04-22 03:55 35.35533 -97.84835 39122 ft 452 kts 88°
2026-04-22 03:56 35.35648 -97.77204 39126 ft 452 kts 88°
2026-04-22 03:56 35.35757 -97.69552 39129 ft 452 kts 87°
2026-04-22 03:57 35.35757 -97.61847 39126 ft 452 kts 91°
2026-04-22 03:57 35.35182 -97.54194 39135 ft 454 kts 95°
2026-04-22 03:58 35.34389 -97.46536 39133 ft 454 kts 95°
2026-04-22 03:58 35.33586 -97.38841 39133 ft 453 kts 95°
2026-04-22 03:59 35.32791 -97.31231 39137 ft 454 kts 96°
2026-04-22 03:59 35.31989 -97.23596 39143 ft 454 kts 96°
2026-04-22 04:00 35.31184 -97.15981 39137 ft 454 kts 96°
2026-04-22 04:00 35.30371 -97.08331 39131 ft 454 kts 96°
2026-04-22 04:01 35.29549 -97.00641 39136 ft 455 kts 96°
2026-04-22 04:01 35.28730 -96.93015 39140 ft 455 kts 96°
2026-04-22 04:02 35.27906 -96.85399 39143 ft 454 kts 96°
2026-04-22 04:02 35.27075 -96.77771 39144 ft 455 kts 96°
2026-04-22 04:03 35.26235 -96.70106 39158 ft 454 kts 96°
2026-04-22 04:03 35.25394 -96.62470 39147 ft 455 kts 96°
2026-04-22 04:04 35.24549 -96.54839 39157 ft 455 kts 96°
2026-04-22 04:04 35.23697 -96.47188 39151 ft 455 kts 96°
2026-04-22 04:05 35.22840 -96.39532 39146 ft 455 kts 96°
2026-04-22 04:05 35.21975 -96.31851 39157 ft 455 kts 96°
2026-04-22 04:06 35.21111 -96.24243 39151 ft 456 kts 96°
2026-04-22 04:06 35.20234 -96.16567 39150 ft 456 kts 96°
2026-04-22 04:07 35.19352 -96.08876 39161 ft 456 kts 96°
2026-04-22 04:07 35.18474 -96.01249 39149 ft 456 kts 96°
2026-04-22 04:08 35.17590 -95.93617 39159 ft 456 kts 96°
2026-04-22 04:08 35.16694 -95.85938 39168 ft 456 kts 96°
2026-04-22 04:09 35.15801 -95.78306 39157 ft 457 kts 96°
2026-04-22 04:09 35.14892 -95.70597 39168 ft 458 kts 96°
2026-04-22 04:10 35.13986 -95.62945 39167 ft 458 kts 96°
2026-04-22 04:10 35.13075 -95.55282 39166 ft 458 kts 96°
2026-04-22 04:11 35.12154 -95.47599 39163 ft 459 kts 96°
2026-04-22 04:11 35.11169 -95.39895 39171 ft 459 kts 97°
2026-04-22 04:12 35.10147 -95.32203 39167 ft 459 kts 97°
2026-04-22 04:12 35.09132 -95.24563 39167 ft 460 kts 97°
2026-04-22 04:13 35.08109 -95.16870 39163 ft 461 kts 97°
2026-04-22 04:13 35.07070 -95.09103 39170 ft 462 kts 97°
2026-04-22 04:14 35.06040 -95.01411 39175 ft 462 kts 97°
2026-04-22 04:14 35.05000 -94.93677 39187 ft 462 kts 97°
2026-04-22 04:15 35.03960 -94.86002 39180 ft 462 kts 97°
2026-04-22 04:15 35.02906 -94.78252 39195 ft 462 kts 97°
2026-04-22 04:16 35.01415 -94.66734 39189 ft 461 kts 94°
2026-04-22 04:17 35.00831 -94.58948 39204 ft 461 kts 92°
2026-04-22 04:17 35.00281 -94.51173 39210 ft 461 kts 92°
2026-04-22 04:18 34.99726 -94.43417 39184 ft 461 kts 93°
2026-04-22 04:18 34.99159 -94.35616 39196 ft 461 kts 93°
2026-04-22 04:19 34.98583 -94.27763 39198 ft 462 kts 93°
2026-04-22 04:19 34.98002 -94.19951 39199 ft 461 kts 93°
2026-04-22 04:20 34.97422 -94.12210 39207 ft 461 kts 93°
2026-04-22 04:20 34.96840 -94.04471 39200 ft 461 kts 93°
2026-04-22 04:21 34.96250 -93.96714 39205 ft 461 kts 93°
2026-04-22 04:21 34.95658 -93.88963 39207 ft 462 kts 93°
2026-04-22 04:22 34.95053 -93.81146 39211 ft 463 kts 93°
2026-04-22 04:22 34.94443 -93.73346 39217 ft 463 kts 93°
2026-04-22 04:23 34.93831 -93.65590 39216 ft 461 kts 93°
2026-04-22 04:23 34.93221 -93.57870 39202 ft 462 kts 93°
2026-04-22 04:24 34.92601 -93.50108 39207 ft 463 kts 93°
2026-04-22 04:24 34.91974 -93.42322 39199 ft 464 kts 93°
2026-04-22 04:25 34.91336 -93.34478 39209 ft 464 kts 94°
2026-04-22 04:25 34.90699 -93.26695 39194 ft 464 kts 94°
2026-04-22 04:26 34.90048 -93.18814 39198 ft 464 kts 93°
2026-04-22 04:26 34.89399 -93.11015 39201 ft 464 kts 93°
2026-04-22 04:27 34.88741 -93.03158 39198 ft 464 kts 93°
2026-04-22 04:27 34.88086 -92.95399 39214 ft 466 kts 93°
2026-04-22 04:28 34.87419 -92.87564 39197 ft 467 kts 93°
2026-04-22 04:28 34.86743 -92.79694 39206 ft 467 kts 93°
2026-04-22 04:29 34.86070 -92.71917 39208 ft 466 kts 93°
2026-04-22 04:29 34.85386 -92.64046 39211 ft 468 kts 93°
2026-04-22 04:30 34.84700 -92.56218 39212 ft 469 kts 93°
2026-04-22 04:30 34.84001 -92.48322 39207 ft 469 kts 93°
2026-04-22 04:31 34.83302 -92.40469 39217 ft 470 kts 93°
2026-04-22 04:31 34.82596 -92.32574 39215 ft 470 kts 94°
2026-04-22 04:32 34.81881 -92.24671 39196 ft 471 kts 94°
2026-04-22 04:32 34.81435 -92.16744 39199 ft 470 kts 88°
2026-04-22 04:33 34.81679 -92.08852 39221 ft 469 kts 82°
2026-04-22 04:33 34.82451 -92.00993 39208 ft 468 kts 80°
2026-04-22 04:34 34.83267 -91.93167 39208 ft 467 kts 80°
2026-04-22 04:34 34.84069 -91.85348 39190 ft 468 kts 80°
2026-04-22 04:35 34.84858 -91.77554 39189 ft 467 kts 80°
2026-04-22 04:35 34.85649 -91.69666 39165 ft 469 kts 80°
2026-04-22 04:36 34.86433 -91.61794 39172 ft 470 kts 80°
2026-04-22 04:36 34.87212 -91.53899 39192 ft 471 kts 80°
2026-04-22 04:37 34.87989 -91.45986 39173 ft 470 kts 80°
2026-04-22 04:37 34.88760 -91.38103 39184 ft 471 kts 80°
2026-04-22 04:38 34.89527 -91.30183 39188 ft 470 kts 81°
2026-04-22 04:38 34.90284 -91.22295 39193 ft 471 kts 81°
2026-04-22 04:39 34.91038 -91.14411 39189 ft 472 kts 81°
2026-04-22 04:39 34.91790 -91.06477 39190 ft 472 kts 81°
2026-04-22 04:40 34.92534 -90.98596 39201 ft 472 kts 81°
2026-04-22 04:40 34.93278 -90.90630 39204 ft 473 kts 81°
2026-04-22 04:41 34.94013 -90.82719 39190 ft 473 kts 81°
2026-04-22 04:41 34.94748 -90.74746 39196 ft 473 kts 81°
2026-04-22 04:42 34.95478 -90.66778 39206 ft 474 kts 81°
2026-04-22 04:42 34.96202 -90.58824 39197 ft 475 kts 81°
2026-04-22 04:43 34.96921 -90.50844 39205 ft 475 kts 81°
2026-04-22 04:43 34.97636 -90.42858 39194 ft 474 kts 81°
2026-04-22 04:44 34.98343 -90.34892 39205 ft 475 kts 81°
2026-04-22 04:44 34.99052 -90.26865 39200 ft 476 kts 81°
2026-04-22 04:45 34.99752 -90.18868 39208 ft 477 kts 81°
2026-04-22 04:45 35.00451 -90.10850 39205 ft 477 kts 81°
2026-04-22 04:46 35.00959 -90.02813 39218 ft 479 kts 86°
2026-04-22 04:46 35.00760 -89.94674 39208 ft 482 kts 92°
2026-04-22 04:47 34.99831 -89.86622 39200 ft 484 kts 98°
2026-04-22 04:47 34.98637 -89.78555 39210 ft 485 kts 98°
2026-04-22 04:48 34.97439 -89.70491 39216 ft 485 kts 98°
2026-04-22 04:48 34.96243 -89.62399 39211 ft 486 kts 98°
2026-04-22 04:49 34.95043 -89.54302 39215 ft 487 kts 98°
2026-04-22 04:49 34.93838 -89.46204 39205 ft 489 kts 98°
2026-04-22 04:50 34.92626 -89.38104 39216 ft 489 kts 98°
2026-04-22 04:50 34.91402 -89.29952 39201 ft 489 kts 98°
2026-04-22 04:51 34.90173 -89.21802 39198 ft 490 kts 99°
2026-04-22 04:51 34.88940 -89.13672 39205 ft 491 kts 99°
2026-04-22 04:52 34.87695 -89.05496 39211 ft 492 kts 99°
2026-04-22 04:52 34.86451 -88.97375 39208 ft 492 kts 99°
2026-04-22 04:53 34.85198 -88.89217 39211 ft 491 kts 99°
2026-04-22 04:53 34.83937 -88.81062 39212 ft 493 kts 99°
2026-04-22 04:54 34.82672 -88.72901 39220 ft 494 kts 99°
2026-04-22 04:54 34.81391 -88.64684 39216 ft 495 kts 99°
2026-04-22 04:55 34.80113 -88.56521 39221 ft 496 kts 99°
2026-04-22 04:55 34.78813 -88.48257 39221 ft 496 kts 99°
2026-04-22 04:56 34.77515 -88.40050 39220 ft 497 kts 99°
2026-04-22 04:56 34.76206 -88.31809 39211 ft 497 kts 100°
2026-04-22 04:57 34.74894 -88.23574 39218 ft 498 kts 100°
2026-04-22 04:57 34.73574 -88.15333 39215 ft 498 kts 100°
2026-04-22 04:58 34.72249 -88.07098 39218 ft 499 kts 100°
2026-04-22 04:58 34.70911 -87.98827 39224 ft 500 kts 100°
2026-04-22 04:59 34.69573 -87.90579 39232 ft 500 kts 100°
2026-04-22 04:59 34.68220 -87.82274 39236 ft 502 kts 100°
2026-04-22 05:00 34.66867 -87.74010 39236 ft 502 kts 100°
2026-04-22 05:00 34.65522 -87.65739 39246 ft 502 kts 100°
2026-04-22 05:01 34.64250 -87.57389 39243 ft 502 kts 99°
2026-04-22 05:01 34.62989 -87.49095 39240 ft 503 kts 99°
2026-04-22 05:02 34.61718 -87.40810 39120 ft 499 kts 99°
2026-04-22 05:02 34.61084 -87.36695 38715 ft 497 kts 100°
2026-04-22 05:02 34.60447 -87.32564 38170 ft 496 kts 101°
2026-04-22 05:02 34.59811 -87.28453 37580 ft 494 kts 101°
2026-04-22 05:03 34.59178 -87.24384 36958 ft 493 kts 101°
2026-04-22 05:03 34.58546 -87.20327 36286 ft 494 kts 101°
2026-04-22 05:03 34.57906 -87.16237 35702 ft 494 kts 101°
2026-04-22 05:03 34.57273 -87.12185 35164 ft 495 kts 102°
2026-04-22 05:04 34.56633 -87.08107 34619 ft 495 kts 102°
2026-04-22 05:04 34.55985 -87.03991 34053 ft 496 kts 102°
2026-04-22 05:04 34.55338 -86.99898 33398 ft 496 kts 102°
2026-04-22 05:04 34.54671 -86.95811 32713 ft 497 kts 103°
2026-04-22 05:05 34.53846 -86.91755 31992 ft 498 kts 107°
2026-04-22 05:05 34.52869 -86.87769 31261 ft 499 kts 108°
2026-04-22 05:05 34.51842 -86.83730 30504 ft 501 kts 108°
2026-04-22 05:05 34.50811 -86.79710 29749 ft 503 kts 108°
2026-04-22 05:06 34.49782 -86.75700 29065 ft 503 kts 108°
2026-04-22 05:06 34.48748 -86.71660 28642 ft 496 kts 108°
2026-04-22 05:06 34.47742 -86.67728 28215 ft 490 kts 108°
2026-04-22 05:06 34.46748 -86.63838 27736 ft 486 kts 107°
2026-04-22 05:07 34.45745 -86.59920 27262 ft 481 kts 107°
2026-04-22 05:07 34.44767 -86.56100 26786 ft 476 kts 107°
2026-04-22 05:07 34.43796 -86.52314 26310 ft 472 kts 107°
2026-04-22 05:07 34.42820 -86.48515 25835 ft 468 kts 107°
2026-04-22 05:08 34.41870 -86.44817 25358 ft 464 kts 107°
2026-04-22 05:08 34.40908 -86.41083 24881 ft 460 kts 107°
2026-04-22 05:08 34.39972 -86.37453 24422 ft 455 kts 107°
2026-04-22 05:08 34.39033 -86.33817 23949 ft 451 kts 107°
2026-04-22 05:09 34.38099 -86.30203 23473 ft 447 kts 107°
2026-04-22 05:09 34.37168 -86.26608 23009 ft 443 kts 107°
2026-04-22 05:09 34.36244 -86.23037 22569 ft 439 kts 107°
2026-04-22 05:09 34.35339 -86.19540 22131 ft 435 kts 107°
2026-04-22 05:10 34.34437 -86.16063 21680 ft 432 kts 107°
2026-04-22 05:10 34.33537 -86.12600 21252 ft 428 kts 107°
2026-04-22 05:10 34.32796 -86.09757 20895 ft 424 kts 108°
2026-04-22 05:10 34.32162 -86.07321 20588 ft 422 kts 108°
2026-04-22 05:11 34.31375 -86.04310 20219 ft 418 kts 108°
2026-04-22 05:11 34.30749 -86.01914 19915 ft 415 kts 108°
2026-04-22 05:11 34.29501 -85.97142 19269 ft 410 kts 108°
2026-04-22 05:12 34.28904 -85.94864 18962 ft 408 kts 108°